Location: Newark
(52.3500°N, 175.9667°E)
Time: 06:10:29
(UTC+00:00)

N. Korean satellite - Pass Details

Date: 22 November 2019
Orbit: 456 x 506 km, 97.2° (Epoch: 07 December)

Event Time Altitude Azimuth Distance (km) Brightness Sun altitude
Rises 18:56:49 0° 7° (N) 2,621 10.1 -7.9°
Reaches altitude 10° 18:59:00 10° 359° (N) 1,726 9.1 -7.6°
Maximum altitude 19:02:28 38° 291° (WNW) 784 7.1 -7.1°
Drops below altitude 10° 19:05:52 10° 223° (SW) 1,693 9.1 -6.7°
Sets 19:08:00 0° 215° (SW) 2,562 10.1 -6.4°
